DW7857 Weather Reports


time (UTC)temp
F
wind
direction
speed
knots
gust
knots
rain 1hr
in
rain 24hr
in
rain mn
in
humidity
%
barometer
mb
20260831151803 69 283 7.8 11.3 0.00 0.14 0.01 51 1012.6
20260831150903 69 296 8.7 13.9 0.00 0.14 0.01 50 1012.3
20260831150003 69 312 7.8 10.4 0.00 0.14 0.01 51 1012.3
20260831145403 69 327 8.7 13.0 0.00 0.14 0.01 52 1012.2
20260831144503 69 311 8.7 9.6 0.00 0.14 0.01 56 1012.2
20260831143603 68 300 8.7 13.0 0.00 0.14 0.01 58 1011.9
20260831142703 68 327 7.8 13.0 0.00 0.14 0.01 61 1012.0
20260831141803 67 306 7.0 11.3 0.00 0.14 0.01 65 1011.9
20260831140903 67 301 8.7 12.2 0.00 0.14 0.01 66 1012.0
20260831140003 66 331 7.0 12.2 0.00 0.14 0.01 67 1012.0
20260831135403 65 323 8.7 12.2 0.00 0.14 0.01 64 1012.0
20260831134717 67 294 7.0 9.6 0.00 0.15 0.01 61 1012.2
20260831133603 70 319 6.1 7.8 0.00 0.15 0.01 59 1011.6
20260831132703 68 334 7.0 9.6 0.00 0.15 0.01 58 1011.6
20260831132017 68 315 7.0 9.6 0.00 0.15 0.01 57 1011.6
20260831130903 68 339 7.8 12.2 0.00 0.15 0.01 56 1011.6
20260831130003 69 319 7.8 9.6 0.00 0.15 0.01 55 1011.4
20260831125403 69 322 7.0 9.6 0.00 0.15 0.01 55 1011.2
20260831124503 69 357 6.1 7.0 0.00 0.15 0.01 59 1010.9
20260831123816 69 342 7.0 10.4 0.00 0.15 0.01 60 1011.0
20260831122703 69 330 8.7 13.0 0.00 0.15 0.01 57 1011.0
20260831121803 70 311 8.7 12.2 0.00 0.15 0.01 54 1010.6
20260831120903 70 312 6.1 8.7 0.00 0.15 0.01 60 1010.5
20260831120003 68 323 6.1 8.7 0.00 0.15 0.01 62 1010.5
20260831115403 69 315 7.8 9.6 0.00 0.15 0.01 62 1010.5
20260831114503 69 327 7.8 9.6 0.00 0.15 0.01 61 1010.4
20260831113603 70 320 6.1 10.4 0.00 0.15 0.01 60 1010.3
20260831112703 69 320 8.7 12.2 0.00 0.15 0.01 62 1010.0
20260831111803 69 323 7.0 9.6 0.00 0.17 0.01 61 1010.1
20260831110903 69 293 7.8 9.6 0.00 0.17 0.01 61 1009.8
20260831110003 68 310 8.7 10.4 0.00 0.22 0.01 62 1009.8
20260831105403 69 343 8.7 12.2 0.00 0.22 0.01 61 1009.6
20260831104503 69 326 7.0 9.6 0.00 0.22 0.01 63 1009.4
20260831103603 68 303 7.8 9.6 0.00 0.22 0.01 65 1009.6
20260831102703 68 332 7.8 9.6 0.00 0.22 0.01 66 1009.4
20260831101803 66 319 8.7 12.2 0.00 0.22 0.01 70 1009.2
20260831100903 66 317 6.1 8.7 0.00 0.22 0.01 68 1009.3
20260831100217 66 289 6.1 7.8 0.00 0.22 0.01 66 1008.9
20260831095403 67 297 6.1 7.8 0.00 0.22 0.01 65 1008.9
20260831094503 68 311 6.1 8.7 0.00 0.22 0.01 64 1008.5
20260831093603 68 349 7.0 8.7 0.00 0.22 0.01 63 1008.6
20260831092703 68 322 7.8 9.6 0.00 0.22 0.01 65 1008.2
20260831091803 67 316 7.0 8.7 0.00 0.22 0.01 66 1008.2
20260831091117 67 312 7.0 9.6 0.00 0.22 0.01 68 1008.1
20260831090003 66 300 6.1 7.8 0.00 0.22 0.01 69 1007.9
20260831085403 67 331 7.8 13.9 0.00 0.22 0.01 70 1007.6
20260831084503 66 302 7.8 13.9 0.00 0.22 0.01 70 1007.7
20260831083603 66 306 7.8 13.0 0.00 0.22 0.01 70 1007.6
20260831082703 66 307 7.8 9.6 0.00 0.22 0.01 71 1007.4
20260831082017 65 312 9.6 12.2 0.00 0.22 0.01 72 1007.3
20260831050903 59 301 7.8 9.6 0.00 0.22 0.01 84 1003.8
20260831050003 58 291 7.0 12.2 0.00 0.22 0.01 84 1003.8
20260831045403 58 309 6.1 12.2 0.00 0.22 0.01 85 1003.4
20260831044503 58 237 5.2 7.0 0.00 0.22 0.01 85 1003.6
20260831043603 58 321 5.2 7.0 0.00 0.22 0.01 85 1003.5
20260831042703 58 185 5.2 5.2 0.00 0.22 0.01 85 1003.4
20260831041803 58 180 5.2 5.2 0.00 0.22 0.01 86 1003.2
20260831040903 58 190 5.2 7.0 0.00 0.22 0.01 86 1003.2
20260831040217 58 237 4.3 6.1 0.00 0.22 0.01 86 1003.0
20260831035403 58 272 4.3 6.1 0.00 0.22 0.01 86 1003.1
20260831034716 58 210 4.3 6.1 0.00 0.22 0.01 86 1003.0
20260831033603 57 231 2.6 6.1 0.00 0.22 0.01 86 1003.1
20260831032917 58 183 3.5 6.1 0.00 0.22 0.01 86 1003.0
20260831031803 58 245 3.5 4.3 0.00 0.22 0.01 86 1003.1
20260831030903 57 127 2.6 4.3 0.00 0.22 0.01 86 1003.3
20260831030003 57 147 3.5 5.2 0.00 0.22 0.01 87 1003.0
20260831025403 57 129 3.5 5.2 0.00 0.22 0.01 87 1002.8
20260831024503 57 190 3.5 5.2 0.00 0.22 0.01 87 1003.0
20260831023603 57 205 3.5 5.2 0.00 0.22 0.01 87 1002.7
20260831022703 57 332 2.6 3.5 0.00 0.22 0.01 87 1002.4
20260831021803 57 143 3.5 7.0 0.00 0.22 0.01 87 1002.4
20260831020903 57 159 2.6 7.0 0.00 0.22 0.01 87 1002.3
20260831020003 57 176 3.5 5.2 0.00 0.22 0.01 87 1002.5
20260831015403 57 185 2.6 3.5 0.00 0.22 0.01 87 1002.2
20260831014503 57 174 3.5 4.3 0.00 0.22 0.01 87 1002.1
20260831013603 57 168 3.5 5.2 0.00 0.22 0.01 87 1002.4
20260831012703 57 176 3.5 6.1 0.00 0.22 0.01 87 1002.1
20260831011803 57 159 2.6 3.5 0.00 0.22 0.01 87 1002.1
20260831010903 57 170 3.5 5.2 0.00 0.22 0.01 87 1002.0
20260831010003 57 183 3.5 5.2 0.00 0.22 0.01 87 1002.0
20260831005403 57 187 3.5 5.2 0.00 0.22 0.01 87 1001.8
20260831004718 57 168 3.5 6.1 0.00 0.22 0.01 86 1002.0
20260831003603 57 142 2.6 4.3 0.00 0.22 0.01 86 1001.7
20260831002918 58 214 4.3 7.8 0.00 0.22 0.01 87 1001.7
20260831002017 57 220 3.5 7.8 0.00 0.22 0.01 87 1001.8
20260831001117 58 140 2.6 4.3 0.01 0.22 0.01 87 1001.5
20260831000003 58 153 3.5 6.1 0.01 0.22 0.01 86 1001.2
20260830235403 58 154 3.5 6.1 0.01 0.22 0.01 85 1001.2
20260830234503 58 156 1.7 3.5 0.01 0.22 0.01 84 1001.2
20260830233603 58 198 3.5 5.2 0.01 0.22 0.01 84 1001.0
20260830232703 58 215 4.3 7.0 0.01 0.22 0.01 85 1001.0
20260830231803 59 213 4.3 6.1 0.01 0.22 0.01 86 1001.1
20260830230903 59 202 3.5 4.3 0.00 0.21 0.00 88 1001.0
20260830230004 59 132 2.6 4.3 0.00 0.21 0.00 88 1001.2
20260830225403 59 55 1.7 3.5 0.00 0.21 0.21 87 1000.8
20260830224503 59 169 2.6 3.5 0.00 0.21 0.21 87 1000.9
20260830223818 60 206 3.5 8.7 0.00 0.21 0.21 88 1001.1
20260830222703 60 215 3.5 6.1 0.00 0.21 0.21 88 1000.9
20260830222017 60 265 4.3 7.0 0.00 0.21 0.21 89 1001.0
20260830220903 60 156 4.3 7.0 0.00 0.21 0.21 89 1000.5
20260830220003 60 220 3.5 7.0 0.00 0.21 0.21 89 1000.5
20260830215617 60 254 3.5 7.0 0.00 0.21 0.21 89 1000.4
20260830214503 61 183 5.2 7.0 0.00 0.21 0.21 89 1000.1
20260830213603 61 181 6.1 7.8 0.00 0.21 0.21 89 1000.2
20260830212703 61 199 5.2 8.7 0.00 0.21 0.21 89 1000.0
20260830211803 61 189 4.3 5.2 0.00 0.21 0.21 90 1000.1
20260830211118 61 194 5.2 7.0 0.00 0.21 0.21 89 1000.2
20260830210003 61 160 4.3 8.7 0.00 0.21 0.21 88 1000.3
20260830205403 61 195 5.2 9.6 0.00 0.21 0.21 88 1000.3
20260830204503 61 185 7.0 13.9 0.00 0.21 0.21 88 1000.5
20260830203603 61 196 7.0 13.9 0.00 0.21 0.21 88 1000.3
20260830202703 61 196 6.1 8.7 0.00 0.21 0.21 89 1000.7
20260830201803 61 198 6.1 9.6 0.00 0.21 0.21 90 1001.0
20260830200903 61 190 4.3 7.8 0.00 0.21 0.21 90 1000.6
20260830200003 61 207 5.2 7.0 0.11 0.21 0.21 91 1001.0
20260830195403 61 247 6.1 9.6 0.13 0.21 0.21 91 1001.0
20260830194717 61 197 5.2 7.0 0.13 0.21 0.21 92 1001.0
20260830193817 60 149 5.2 7.0 0.13 0.21 0.21 92 1000.9
20260830192703 60 169 4.3 7.0 0.13 0.21 0.21 90 1001.0
20260830191803 60 192 5.2 7.8 0.13 0.21 0.21 89 1000.9
20260830190903 61 246 3.5 7.0 0.13 0.21 0.21 87 1000.8
20260830190003 62 207 6.1 10.4 0.02 0.11 0.11 84 1000.9
20260830185403 62 168 7.0 10.4 0.00 0.08 0.08 82 1000.9
20260830184503 62 148 7.0 12.2 0.00 0.08 0.08 81 1001.0
20260830183603 62 154 7.8 12.2 0.00 0.08 0.08 80 1000.8
20260830182703 63 174 6.1 9.6 0.00 0.08 0.08 79 1001.1
20260830181803 63 166 7.0 9.6 0.00 0.08 0.08 77 1001.0
20260830180903 64 173 6.1 11.3 0.00 0.08 0.08 72 1001.1
20260830180003 64 227 6.1 7.8 0.00 0.08 0.08 73 1001.1
20260830175617 64 222 7.0 9.6 0.00 0.08 0.08 73 1001.2
20260830174503 63 189 6.1 8.7 0.00 0.08 0.08 82 1001.0
20260830173603 63 196 9.6 14.8 0.00 0.08 0.08 84 1000.9
20260830172703 64 222 11.3 14.8 0.00 0.08 0.08 80 1001.3
20260830171846 64 225 2.6 15.6 0.00 0.08 0.08 81 1001.0
20260830165403 64 194 8.7 13.9 0.00 0.08 0.08 81 1001.5
20260830164503 64 179 9.6 13.9 0.00 0.08 0.08 80 1001.5
20260830163603 65 180 12.2 16.5 0.00 0.08 0.08 80 1001.6
20260830162703 65 200 11.3 17.4 0.00 0.08 0.08 78 1001.5
20260830162018 65 201 10.4 14.8 0.00 0.08 0.08 79 1002.0
20260830160903 65 210 9.6 14.8 0.00 0.08 0.08 80 1002.0
20260830160217 65 199 9.6 14.8 0.00 0.08 0.08 80 1001.6
20260830155403 65 195 8.7 13.0 0.00 0.08 0.08 81 1001.9
20260830154503 65 201 9.6 16.5 0.00 0.08 0.08 79 1001.9
20260830153603 65 187 10.4 13.9 0.00 0.08 0.08 78 1002.0
20260830152703 65 188 10.4 13.9 0.00 0.08 0.08 78 1002.1